This demonstration page uses our WeatherBlox Daily Observations layout. Learn more.

Hourly Observations for December 8, 2016

Temp ( °F °C ) Dew Point ( °F °C ) Humidity (%) Winds ( mph kmh ) Pressure ( in mb ) Visibility ( mi km ) Precip ( " mm )
12:15 am 00:15 Clear 32 0 32 0 100 100 undefined N/A 30.09 1019 10 16.0934 0 0
12:35 am 00:35 Clear 32 0 32 0 100 100 undefined N/A 30.09 1019 10 16.0934 0 0
12:55 am 00:55 Partly Cloudy 32 0 32 0 100 100 undefined N/A 30.09 1019 10 16.0934 0 0
1:15 am 01:15 Mostly Cloudy 32 0 32 0 100 100 NW 3 6 30.09 1019 10 16.0934 0 0
1:35 am 01:35 Cloudy 32 0 32 0 100 100 undefined N/A 30.09 1019 10 16.0934 0 0
1:55 am 01:55 Cloudy 32 0 32 0 100 100 undefined N/A 30.09 1019 10 16.0934 0 0
2:15 am 02:15 Mostly Cloudy 34 1 34 1 100 100 undefined N/A 30.09 1019 10 16.0934 0 0
2:35 am 02:35 Mostly Cloudy 34 1 32 0 93 93 undefined N/A 30.09 1019 10 16.0934 0 0
2:55 am 02:55 Mostly Cloudy 34 1 32 0 93 93 undefined N/A 30.09 1019 10 16.0934 0 0
3:15 am 03:15 Cloudy 34 1 32 0 93 93 undefined N/A 30.09 1019 10 16.0934 0 0
3:35 am 03:35 Cloudy 34 1 34 1 100 100 undefined N/A 30.09 1019 10 16.0934 0 0
3:55 am 03:55 Cloudy 36 2 34 1 93 93 undefined N/A 30.09 1019 10 16.0934 0 0
4:15 am 04:15 Cloudy 36 2 34 1 93 93 undefined N/A 30.09 1019 10 16.0934 0 0
4:35 am 04:35 Cloudy 36 2 34 1 93 93 undefined N/A 30.06 1018 10 16.0934 0 0
4:55 am 04:55 Cloudy 36 2 34 1 93 93 undefined N/A 30.06 1018 10 16.0934 0 0
5:15 am 05:15 Cloudy 37 3 36 2 93 93 undefined N/A 30.06 1018 10 16.0934 0 0
5:35 am 05:35 Cloudy 37 3 36 2 93 93 undefined N/A 30.09 1019 10 16.0934 0 0
5:55 am 05:55 Cloudy 37 3 36 2 93 93 undefined N/A 30.06 1018 10 16.0934 0 0
6:15 am 06:15 Cloudy 37 3 36 2 93 93 undefined N/A 30.09 1019 10 16.0934 0 0
6:35 am 06:35 Cloudy 37 3 34 1 87 87 undefined N/A 30.06 1018 10 16.0934 0 0
6:55 am 06:55 Cloudy 37 3 34 1 87 87 undefined N/A 30.09 1019 10 16.0934 0 0
7:15 am 07:15 Cloudy 37 3 36 2 93 93 undefined N/A 30.09 1019 10 16.0934 0 0
7:35 am 07:35 Cloudy 37 3 36 2 93 93 undefined N/A 30.06 1018 10 16.0934 0 0
7:55 am 07:55 Cloudy 37 3 34 1 87 87 undefined N/A 30.09 1019 10 16.0934 0 0
8:15 am 08:15 Cloudy 39 4 34 1 81 81 undefined N/A 30.09 1019 10 16.0934 0 0
8:35 am 08:35 Cloudy 41 5 32 0 70 70 undefined N/A 30.09 1019 10 16.0934 0 0
8:55 am 08:55 Cloudy 41 5 32 0 70 70 undefined N/A 30.09 1019 10 16.0934 0 0
9:15 am 09:15 Cloudy 43 6 32 0 66 66 W 5 7 30.09 1019 10 16.0934 0 0
9:35 am 09:35 Cloudy 43 6 32 0 66 66 undefined N/A 30.09 1019 10 16.0934 0 0
9:55 am 09:55 Cloudy 43 6 32 0 66 66 undefined N/A 30.09 1019 10 16.0934 0 0
10:15 am 10:15 Cloudy 45 7 32 0 61 61 WNW 10 17 30.09 1019 10 16.0934 0 0
10:35 am 10:35 Cloudy 45 7 30 -1 57 57 W 12 19 30.09 1019 10 16.0934 0 0
10:55 am 10:55 Cloudy 45 7 28 -2 53 53 W 13 20 30.06 1018 10 16.0934 0 0
11:15 am 11:15 Cloudy 45 7 28 -2 53 53 WNW 15 24 30.06 1018 10 16.0934 0 0
11:35 am 11:35 Partly Cloudy 45 7 27 -3 49 49 W 15 24 30.06 1018 10 16.0934 0 0
11:55 am 11:55 Sunny 46 8 27 -3 46 46 W 8 13 30.06 1018 10 16.0934 0 0
12:15 pm 12:15 Sunny 46 8 25 -4 43 43 W 10 17 30.06 1018 10 16.0934 0 0
12:35 pm 12:35 Sunny 45 7 27 -3 49 49 WNW 18 30 30.03 1017 10 16.0934 0 0
12:55 pm 12:55 Sunny 45 7 23 -5 42 42 W 14 22 30.03 1017 10 16.0934 0 0
1:15 pm 13:15 Sunny 45 7 23 -5 42 42 W 9 15 30.03 1017 10 16.0934 0 0
1:35 pm 13:35 Sunny 45 7 23 -5 42 42 W 15 24 30.03 1017 10 16.0934 0 0
1:55 pm 13:55 Sunny 45 7 25 -4 46 46 W 13 20 30.03 1017 10 16.0934 0 0
2:15 pm 14:15 Partly Cloudy 46 8 25 -4 43 43 WNW 15 24 30.03 1017 10 16.0934 0 0
2:35 pm 14:35 Partly Cloudy 46 8 25 -4 43 43 NW 22 35 30.03 1017 10 16.0934 0 0
2:55 pm 14:55 Sunny 46 8 23 -5 40 40 WNW 20 31 30.06 1018 10 16.0934 0 0
3:15 pm 15:15 Sunny 46 8 23 -5 40 40 WNW 18 30 30.06 1018 10 16.0934 0 0
3:35 pm 15:35 Sunny 45 7 21 -6 39 39 WNW 18 30 30.06 1018 10 16.0934 0 0
3:55 pm 15:55 Sunny 45 7 21 -6 39 39 NW 20 31 30.09 1019 10 16.0934 0 0
4:15 pm 16:15 Sunny 43 6 21 -6 42 42 WNW 20 31 30.09 1019 10 16.0934 0 0
4:35 pm 16:35 Sunny 43 6 21 -6 42 42 WNW 15 24 30.09 1019 10 16.0934 0 0
4:55 pm 16:55 Clear 41 5 21 -6 45 45 WNW 13 20 30.12 1020 10 16.0934 0 0
5:15 pm 17:15 Clear 41 5 21 -6 45 45 WNW 15 24 30.12 1020 10 16.0934 0 0
5:35 pm 17:35 Clear 39 4 21 -6 48 48 WNW 17 28 30.12 1020 10 16.0934 0 0
5:55 pm 17:55 Clear 39 4 21 -6 48 48 WNW 13 20 30.15 1021 10 16.0934 0 0
6:15 pm 18:15 Clear 37 3 21 -6 52 52 WNW 13 20 30.15 1021 10 16.0934 0 0
6:35 pm 18:35 Clear 37 3 21 -6 52 52 WNW 17 28 30.15 1021 10 16.0934 0 0
6:55 pm 18:55 Clear 37 3 21 -6 52 52 WNW 13 20 30.15 1021 10 16.0934 0 0
7:15 pm 19:15 Clear 36 2 21 -6 56 56 NW 15 24 30.18 1022 10 16.0934 0 0
7:35 pm 19:35 Clear 36 2 21 -6 56 56 NW 16 26 30.18 1022 10 16.0934 0 0
7:55 pm 19:55 Clear 36 2 21 -6 56 56 NNW 8 13 30.18 1022 10 16.0934 0 0
8:15 pm 20:15 Partly Cloudy 36 2 21 -6 56 56 NW 15 24 30.21 1023 10 16.0934 0 0
8:35 pm 20:35 Partly Cloudy 34 1 21 -6 60 60 NW 9 15 30.21 1023 10 16.0934 0 0
8:55 pm 20:55 Partly Cloudy 34 1 19 -7 56 56 NW 22 35 30.21 1023 10 16.0934 0 0
9:15 pm 21:15 Mostly Cloudy 34 1 18 -8 51 51 WNW 15 24 30.21 1023 10 16.0934 0 0
9:35 pm 21:35 Mostly Cloudy 34 1 19 -7 56 56 NW 16 26 30.21 1023 10 16.0934 0 0
9:55 pm 21:55 Mostly Cloudy 34 1 19 -7 56 56 WNW 21 33 30.21 1023 10 16.0934 0 0
10:15 pm 22:15 Mostly Cloudy 34 1 19 -7 56 56 NW 15 24 30.24 1024 10 16.0934 0 0
10:35 pm 22:35 Cloudy 34 1 19 -7 56 56 NW 13 20 30.24 1024 10 16.0934 0 0
10:55 pm 22:55 Cloudy 34 1 19 -7 56 56 WNW 14 22 30.24 1024 10 16.0934 0 0
11:15 pm 23:15 Cloudy 34 1 19 -7 56 56 WNW 16 26 30.24 1024 10 16.0934 0 0
11:35 pm 23:35 Cloudy 32 0 19 -7 60 60 NW 14 22 30.24 1024 10 16.0934 0 0
11:55 pm 23:55 Cloudy 32 0 19 -7 60 60 NW 15 24 30.24 1024 10 16.0934 0 0

Powered by AerisWeather